Temp
8 8 8 8 8 8 8 8 8 8 8 8 7 7 7 7 7 7 6 7 7 7 7 8 8 8 7 7 6 6 6 5 5 5 4 4 3 3 3 3 3 3 3 3 2
8 8 8 8 8 8 8 8 8 8 8 8 8 7 8 8 7 7 7 8 8 8 8 8 7 8 7 7 7 6 6 5 5 5 4 4 4 3 3 3 4 3 3 3 2
9 9 8 8 8 8 8 8 8 8 8 8 8 7 8 8 7 7 8 8 8 8 8 8 7 7 7 7 6 6 6 5 5 4 4 4 4 3 3 3 3 3 3 3 2
9 9 9 9 9 9 9 8 8 8 8 8 8 8 8 8 8 8 8 8 8 8 8 8 8 7 7 7 6 6 5 5 4 4 4 4 4 4 4 4 3 3 3 3 2
9 9 9 9 9 9 9 9 8 8 8 8 8 8 8 8 8 8 8 8 8 8 8 8 8 7 7 6 6 5 5 5 5 4 4 3 3 3 3 3 3 3 3 2 2
8 9 9 9 9 9 9 9 9 9 8 8 8 8 8 8 8 8 8 8 8 8 8 8 8 8 7 6 6 5 5 5 4 4 4 4 4 4 4 3 3 3 3 2 2
8 9 9 9 9 9 9 9 9 9 9 8 8 8 8 8 8 8 8 8 8 8 8 8 8 8 7 6 6 5 5 5 4 4 4 4 4 4 4 3 3 3 3 3 2
9 9 9 9 9 9 9 9 9 9 9 8 8 8 8 9 9 9 8 8 8 8 8 8 8 7 7 6 6 5 5 5 4 4 4 4 4 4 4 3 3 3 3 3 2
9 9 9 9 9 9 9 9 9 9 9 9 9 8 9 9 9 9 9 8 9 8 8 8 8 7 7 7 6 5 5 5 4 4 4 4 5 4 4 4 3 3 3 2 2
9 9 9 9 9 9 9 9 9 9 9 9 9 9 9 9 9 9 9 9 9 8 8 8 7 7 7 7 6 5 4 5 4 4 5 4 5 4 4 4 3 3 3 2 2
9 9 9 9 9 9 9 9 9 9 9 9 9 9 9 8 9 9 9 9 8 8 8 7 7 7 6 6 5 5 5 4 4 3 4 4 7 5 4 4 3 3 3 3 2
8 9 9 9 9 9 9 9 9 9 9 9 9 9 9 8 8 9 9 8 8 8 8 7 7 6 6 5 5 4 4 4 4 3 2 4 7 6 6 5 4 3 3 3 2
8 8 8 8 9 9 9 9 9 9 8 8 8 8 8 8 8 8 8 8 8 8 7 7 7 6 5 5 4 4 4 3 3 3 3 3 6 7 6 5 4 3 3 3 2
8 8 8 8 8 8 9 9 9 8 8 8 8 8 8 8 8 8 8 8 7 7 7 7 6 6 5 5 4 4 3 3 3 2 2 2 2 5 5 4 3 3 2 2 2
7 8 8 8 8 8 8 8 8 8 6 8 8 8 8 8 8 8 7 7 7 7 7 7 6 6 5 5 4 3 3 3 2 2 1 2 1 6 5 5 4 3 2 2 1
7 7 7 7 8 8 8 8 8 8 7 8 8 8 8 8 7 7 7 7 7 7 7 6 6 5 5 4 4 4 3 3 2 1 -1 1 2 5 4 4 3 3 2 1 1
7 7 7 7 7 7 7 7 7 7 8 7 8 8 7 7 7 7 7 7 6 6 6 6 6 5 5 4 4 3 3 3 0 -1 0 1 0 5 4 3 3 2 2 1 0
7 7 7 7 7 7 7 7 7 7 8 7 7 7 7 7 7 7 7 6 6 5 5 5 6 5 4 3 3 2 2 2 -0 -2 -2 -0 -1 5 5 4 3 2 1 1 0
6 7 7 7 7 6 6 6 7 7 7 7 7 7 7 7 6 6 6 6 6 5 4 4 4 4 3 3 3 2 1 1 -1 -2 -4 0 1 3 4 3 3 1 1 1 -0
6 6 6 6 6 6 6 6 6 6 6 6 6 6 6 6 6 5 5 5 5 5 4 3 2 4 3 3 2 1 1 -0 -1 -2 -2 -1 -1 2 3 2 2 2 1 1 -0
5 5 5 6 6 6 6 5 6 6 5 5 5 5 5 5 5 5 5 5 5 4 3 3 1 3 3 3 2 0 0 -0 -0 -1 -3 -3 1 3 2 1 1 0 0 -0 -0
5 5 5 5 5 5 5 5 5 5 5 4 5 5 5 5 4 4 4 4 4 3 3 2 1 1 2 2 2 0 0 0 -1 -2 -2 -4 -1 1 2 1 1 -0 -1 -1 -1
4 4 5 4 4 4 4 4 4 4 4 4 4 4 4 4 3 3 3 4 3 3 2 1 -0 -0 1 1 2 1 1 0 -0 -2 -3 -3 -1 1 1 -0 -1 -1 -2 -2 -3
3 3 3 3 3 3 3 3 4 4 3 3 3 3 3 3 3 2 2 2 2 1 1 -0 -1 0 -0 1 1 -1 -1 -1 -2 -3 -2 -3 -1 2 -0 -1 -2 -2 -3 -4 -4
1 1 1 2 2 2 2 2 2 2 2 2 2 3 2 2 2 1 1 1 0 -1 -2 -2 -1 -1 0 0 -1 -1 -1 -1 -2 -1 -4 0 -1 0 1 -1 -2 -3 -3 -4 -4
-1 -0 0 0 1 0 0 1 1 1 1 1 1 1 1 1 1 -1 0 -0 -1 -1 -1 -1 -2 -1 -0 1 -1 -1 0 0 -0 -0 -3 -1 -1 1 -0 -1 -1 -1 -3 -3 -4
-0 0 0 -0 0 0 0 0 -0 -0 -0 -0 -0 0 0 0 -1 -1 -0 -0 -1 -1 -1 -2 -2 -3 -2 -2 -2 -2 1 1 0 -0 -1 -1 -0 -1 -1 -1 -2 -2 -3 -4 -5
Height
3158 3157 3157 3157 3157 3158 3159 3160 3160 3160 3161 3160 3159 3158 3157 3156 3154 3152 3151 3151 3149 3147 3145 3144 3143 3142 3142 3141 3141 3141 3142 3141 3141 3141 3141 3140 3140 3139 3139 3137 3136 3136 3136 3136 3135
3158 3156 3157 3157 3158 3158 3159 3161 3161 3161 3161 3161 3160 3159 3157 3157 3155 3153 3152 3151 3149 3148 3147 3145 3144 3143 3142 3142 3142 3141 3140 3140 3140 3140 3140 3139 3138 3137 3137 3135 3134 3134 3134 3133 3132
3161 3159 3158 3159 3159 3160 3161 3162 3162 3162 3162 3161 3161 3160 3159 3157 3157 3155 3153 3152 3151 3150 3148 3146 3145 3144 3144 3143 3142 3141 3141 3140 3140 3140 3139 3138 3136 3135 3134 3133 3132 3131 3131 3131 3130
3164 3161 3161 3161 3162 3162 3163 3163 3164 3163 3163 3163 3162 3161 3160 3159 3160 3156 3154 3153 3152 3150 3149 3147 3146 3146 3145 3144 3143 3142 3141 3141 3140 3139 3138 3137 3135 3134 3132 3131 3130 3129 3128 3128 3128
3166 3165 3165 3165 3165 3165 3165 3165 3165 3165 3165 3164 3163 3162 3161 3160 3159 3157 3155 3154 3153 3151 3150 3149 3148 3147 3146 3145 3144 3142 3141 3140 3140 3138 3137 3136 3133 3131 3130 3128 3127 3126 3126 3125 3125
3170 3169 3169 3169 3168 3168 3167 3167 3167 3167 3166 3165 3164 3162 3161 3161 3159 3158 3156 3155 3154 3153 3151 3150 3148 3147 3146 3145 3144 3143 3142 3140 3139 3137 3135 3133 3131 3129 3128 3126 3125 3124 3123 3123 3123
3173 3172 3171 3170 3170 3170 3169 3169 3168 3167 3167 3166 3165 3164 3162 3163 3160 3158 3157 3156 3155 3153 3152 3151 3149 3148 3146 3145 3144 3143 3142 3140 3138 3136 3134 3131 3129 3127 3126 3125 3123 3122 3120 3120 3119
3176 3175 3174 3173 3172 3171 3170 3170 3169 3168 3167 3167 3165 3165 3164 3162 3161 3159 3158 3157 3155 3154 3153 3151 3149 3148 3147 3146 3144 3142 3142 3140 3138 3135 3133 3131 3128 3126 3124 3123 3121 3120 3119 3117 3116
3178 3177 3176 3174 3173 3172 3171 3170 3169 3169 3168 3167 3167 3165 3165 3163 3162 3161 3159 3157 3156 3155 3153 3152 3150 3149 3147 3145 3144 3142 3141 3139 3137 3133 3131 3129 3126 3123 3121 3120 3118 3117 3116 3116 3115
3178 3177 3176 3175 3174 3173 3171 3170 3169 3169 3168 3167 3166 3168 3166 3165 3162 3160 3159 3158 3156 3154 3154 3152 3150 3148 3147 3145 3144 3141 3139 3137 3135 3133 3128 3125 3121 3119 3118 3116 3116 3115 3115 3115 3114
3178 3177 3176 3175 3173 3172 3171 3170 3172 3171 3168 3167 3167 3165 3164 3164 3162 3160 3159 3158 3156 3155 3153 3151 3151 3148 3146 3144 3143 3141 3138 3134 3132 3129 3125 3121 3116 3116 3113 3112 3113 3113 3112 3111 3111
3178 3177 3176 3175 3173 3172 3171 3170 3169 3170 3167 3166 3166 3165 3163 3162 3161 3160 3159 3159 3156 3154 3152 3152 3149 3148 3146 3144 3142 3140 3137 3133 3129 3126 3120 3115 3110 3110 3109 3109 3110 3110 3110 3109 3109
3178 3177 3176 3174 3173 3172 3171 3169 3167 3167 3166 3165 3164 3164 3163 3162 3161 3160 3159 3156 3155 3153 3151 3150 3149 3146 3145 3143 3141 3140 3136 3132 3128 3121 3116 3112 3106 3106 3106 3107 3107 3108 3109 3109 3108
3178 3176 3175 3174 3175 3171 3170 3168 3167 3165 3164 3165 3163 3162 3162 3160 3160 3158 3156 3156 3153 3152 3150 3149 3146 3145 3143 3141 3139 3136 3134 3129 3124 3121 3118 3115 3110 3104 3103 3103 3104 3104 3105 3106 3105
3177 3176 3174 3173 3171 3170 3169 3167 3166 3165 3165 3164 3162 3161 3160 3161 3160 3157 3156 3153 3152 3150 3151 3149 3145 3143 3142 3140 3138 3135 3130 3126 3121 3118 3117 3114 3114 3101 3101 3101 3101 3102 3101 3101 3100
3176 3174 3173 3172 3170 3169 3167 3166 3166 3167 3161 3161 3161 3160 3160 3158 3157 3155 3154 3152 3150 3148 3147 3145 3143 3142 3140 3138 3136 3132 3127 3121 3118 3117 3116 3112 3113 3097 3098 3098 3098 3098 3098 3098 3097
3175 3173 3172 3170 3169 3168 3166 3166 3166 3162 3163 3162 3160 3159 3158 3156 3155 3153 3152 3150 3150 3148 3145 3143 3140 3139 3138 3136 3134 3131 3127 3122 3120 3117 3114 3111 3110 3095 3094 3092 3093 3094 3093 3093 3093
3174 3173 3171 3169 3168 3166 3166 3166 3164 3162 3161 3160 3158 3157 3155 3154 3153 3151 3150 3148 3146 3145 3143 3141 3138 3137 3136 3135 3133 3130 3130 3130 3128 3122 3112 3107 3099 3092 3091 3089 3088 3087 3086 3086 3086
3172 3171 3169 3167 3166 3165 3165 3164 3162 3161 3160 3158 3156 3154 3153 3152 3152 3149 3147 3145 3143 3143 3143 3139 3137 3134 3132 3131 3131 3127 3128 3127 3124 3119 3115 3099 3092 3089 3086 3085 3084 3084 3084 3083 3082
3170 3168 3167 3166 3164 3163 3163 3162 3160 3159 3158 3156 3154 3153 3151 3150 3150 3148 3146 3143 3141 3140 3138 3136 3133 3131 3128 3128 3127 3126 3126 3124 3123 3120 3112 3093 3089 3085 3084 3082 3081 3079 3078 3077 3077
3167 3165 3164 3162 3161 3161 3159 3158 3157 3156 3155 3154 3152 3150 3148 3147 3146 3145 3143 3141 3138 3136 3135 3133 3131 3129 3126 3124 3121 3121 3121 3120 3120 3116 3111 3101 3079 3081 3079 3077 3075 3075 3074 3073 3072
3162 3162 3160 3159 3160 3156 3155 3154 3153 3151 3151 3149 3148 3146 3144 3142 3140 3140 3138 3137 3135 3133 3130 3129 3124 3120 3120 3118 3115 3113 3114 3114 3114 3108 3105 3098 3073 3074 3073 3073 3072 3071 3069 3068 3067
3156 3156 3156 3155 3153 3152 3150 3150 3148 3147 3146 3143 3142 3141 3140 3139 3138 3133 3132 3132 3131 3129 3125 3123 3119 3117 3113 3113 3110 3106 3106 3106 3103 3097 3090 3093 3072 3069 3069 3068 3066 3064 3063 3061 3059
3151 3150 3149 3148 3147 3146 3145 3145 3143 3141 3139 3138 3136 3136 3134 3133 3133 3127 3127 3127 3126 3124 3121 3117 3112 3111 3109 3106 3104 3099 3100 3099 3096 3090 3080 3074 3064 3064 3062 3062 3060 3057 3055 3051 3048
3145 3143 3143 3143 3142 3141 3140 3139 3138 3138 3135 3133 3130 3131 3129 3125 3124 3122 3120 3119 3118 3116 3113 3109 3103 3104 3098 3097 3095 3089 3089 3087 3084 3075 3075 3063 3061 3057 3054 3051 3048 3047 3045 3042 3040
3139 3139 3135 3135 3135 3134 3133 3130 3128 3130 3129 3126 3123 3124 3121 3118 3118 3113 3113 3111 3109 3107 3103 3099 3094 3093 3084 3087 3084 3075 3075 3071 3066 3061 3062 3055 3049 3050 3047 3044 3040 3037 3034 3032 3031
3130 3129 3127 3123 3124 3125 3124 3123 3120 3119 3119 3118 3117 3115 3113 3114 3110 3108 3105 3103 3100 3098 3096 3090 3088 3086 3077 3077 3075 3067 3060 3060 3058 3056 3054 3048 3045 3041 3037 3035 3030 3027 3024 3022 3020
Wind_Speed
7 3 4 4 5 7 9 8 7 6 7 7 8 7 5 9 13 15 12 10 10 10 10 10 8 8 6 3 1 1 1 3 2 2 3 5 6 7 8 9 10 10 10 11 11
12 8 6 7 7 9 9 9 8 7 7 7 9 10 9 5 10 12 11 11 12 11 10 9 9 7 5 3 2 2 1 0 1 1 3 6 7 7 7 7 7 8 8 9 10
17 14 11 10 10 11 11 10 8 7 8 8 8 10 11 7 7 11 10 10 10 9 9 9 9 8 6 5 3 2 2 2 1 1 4 6 8 8 7 7 7 8 9 10 11
20 18 16 14 13 12 11 10 9 8 8 8 9 9 10 9 6 9 8 9 9 9 8 9 8 7 6 7 6 6 5 3 2 4 5 7 9 9 7 7 8 9 9 10 10
19 18 16 14 13 12 10 9 8 7 7 8 9 9 8 10 8 7 7 8 9 11 10 10 8 6 7 7 6 8 6 3 5 6 7 9 11 11 9 9 9 10 9 10 11
19 16 14 12 11 10 9 8 6 4 5 7 9 10 9 8 8 7 8 9 8 10 9 11 10 7 7 7 8 4 9 4 7 8 9 12 12 10 10 10 10 11 10 10 9
18 16 13 11 9 8 8 8 7 4 4 6 7 9 10 8 7 8 8 8 7 9 10 10 10 9 9 6 9 4 8 8 11 11 12 14 12 9 10 10 9 8 7 8 8
15 15 14 10 8 5 4 4 5 7 7 5 7 6 7 8 7 7 6 7 8 7 9 9 10 10 9 9 8 12 7 10 14 16 11 17 13 10 11 10 10 9 8 8 8
12 12 12 12 10 7 4 2 2 5 5 6 7 6 5 7 8 7 6 6 8 7 8 10 10 10 10 12 6 7 13 14 14 17 13 19 20 15 13 12 10 10 10 9 8
10 11 10 10 10 9 7 4 4 3 6 5 6 3 4 6 6 7 6 5 8 7 7 8 9 10 10 14 9 14 18 18 21 19 15 25 18 16 17 14 12 10 9 9 8
9 9 9 9 10 10 9 6 5 3 3 4 5 5 4 4 6 6 6 5 8 7 7 7 8 9 10 14 12 15 20 20 23 16 26 25 20 12 19 16 13 9 9 10 9
9 8 8 8 8 9 9 9 6 5 5 4 5 5 6 4 6 7 7 6 7 8 9 7 7 10 11 12 13 15 19 21 16 26 32 26 17 14 15 13 14 10 9 9 7
9 9 9 9 9 10 10 9 8 7 7 9 7 6 6 7 5 7 7 8 8 8 10 8 8 10 12 13 14 16 13 24 27 32 28 20 14 7 9 11 13 11 10 8 5
10 10 10 10 10 10 11 10 9 8 7 6 5 5 6 7 4 7 9 9 8 9 10 7 11 11 12 13 18 18 20 24 27 26 10 16 8 15 14 14 15 14 12 10 7
11 11 10 10 10 10 10 9 8 8 4 4 5 6 7 6 7 9 10 11 10 11 10 10 10 11 10 15 18 16 27 25 23 13 14 7 6 7 12 15 16 16 14 13 11
11 11 11 11 10 10 10 9 10 5 4 3 5 8 9 9 9 10 10 12 13 11 12 13 12 10 10 13 18 16 27 22 11 7 3 2 3 16 10 11 15 19 17 16 14
11 12 12 11 11 11 10 10 6 3 6 4 6 12 11 11 11 11 12 13 12 10 9 16 8 9 10 14 16 19 19 7 4 2 4 3 7 20 16 16 14 20 18 18 16
12 12 13 12 12 12 12 11 3 5 9 13 12 14 14 13 11 9 15 14 16 11 12 7 7 7 12 15 12 16 11 2 5 3 5 15 10 3 9 14 17 22 20 19 19
14 14 13 13 13 13 13 9 5 10 10 14 17 14 9 8 10 14 14 16 8 9 6 7 5 21 20 11 16 10 7 9 7 11 5 7 11 20 21 18 18 23 21 23 21
15 14 14 15 14 13 13 13 15 17 17 17 16 10 13 13 13 12 12 10 10 13 13 10 13 18 12 14 18 12 10 6 5 4 6 9 11 17 15 16 18 22 22 23 23
17 17 16 15 15 16 16 18 17 17 16 16 16 16 18 18 17 17 11 17 17 14 14 18 12 12 17 21 23 15 12 8 7 8 4 4 13 21 32 30 25 18 19 23 25
23 21 19 19 19 17 17 18 18 19 19 19 20 22 23 21 21 20 21 19 19 19 21 21 14 18 24 18 19 19 15 15 11 10 13 9 32 37 19 20 21 25 25 25 24
26 25 23 20 17 19 20 20 21 22 21 22 23 23 22 19 18 13 16 20 20 18 14 15 10 12 9 11 15 19 20 21 28 31 29 13 21 32 42 35 25 28 30 32 29
25 22 25 23 19 12 15 19 17 19 21 21 23 22 23 24 22 21 21 19 22 26 25 24 25 27 24 33 36 32 32 31 29 18 34 36 51 47 47 42 43 37 33 34 41
24 25 23 22 27 28 26 26 26 28 29 28 29 26 27 26 26 27 24 21 22 23 23 25 35 35 39 40 41 45 45 45 41 48 31 51 50 42 37 39 41 40 41 41 42
28 28 31 32 33 35 35 37 35 32 31 31 32 27 26 28 27 31 31 30 32 30 31 32 34 37 45 43 39 43 44 48 46 42 44 45 44 40 38 38 35 28 27 28 32
34 36 39 42 38 34 35 34 33 31 30 29 22 22 23 25 30 33 35 34 35 33 35 37 35 29 35 33 36 34 31 21 21 23 32 35 40 40 37 37 38 35 30 30 26
Wind_Direction
37 55 97 101 110 131 140 132 115 93 78 62 45 29 12 19 21 19 14 14 15 21 22 29 30 35 45 59 47 338 231 177 169 193 263 282 288 292 293 290 278 272 269 272 274
46 64 96 104 102 114 121 117 109 95 81 66 47 29 18 10 19 15 15 15 16 17 20 20 33 45 40 47 58 359 315 188 126 264 308 307 304 300 292 288 276 269 270 274 274
55 71 91 101 103 108 111 107 99 94 79 56 37 30 27 24 17 19 19 16 18 19 21 22 29 41 48 51 43 53 53 42 33 327 318 317 316 312 301 285 281 272 265 270 276
58 65 75 86 93 98 100 100 95 83 69 52 36 28 27 31 26 18 25 24 25 21 26 34 40 40 49 58 58 49 49 43 338 320 318 316 317 308 306 291 278 279 276 273 278
54 62 71 77 84 89 93 90 85 77 63 47 40 34 29 34 35 30 32 33 33 30 32 36 42 42 48 45 43 42 17 358 335 318 315 311 309 299 287 299 285 275 272 276 289
51 56 65 73 77 79 83 83 77 66 52 41 36 33 33 29 32 29 32 31 38 34 31 31 32 32 29 38 30 32 20 344 348 327 319 313 308 294 294 296 290 281 276 284 295
47 50 56 60 66 75 75 69 60 44 28 22 20 25 28 29 26 25 28 24 33 32 30 26 27 27 19 14 16 3 8 4 346 330 329 325 310 282 292 296 297 284 277 284 290
44 46 50 54 60 59 56 43 34 38 31 1 11 358 12 22 21 20 20 22 22 22 24 23 22 21 20 6 356 7 349 3 349 335 321 334 318 290 286 289 287 282 277 271 271
39 39 43 44 42 40 39 24 2 14 349 1 1 354 5 10 16 13 12 17 13 9 9 17 14 9 10 2 354 343 348 342 352 336 313 330 320 283 283 278 271 275 269 261 263
27 30 30 32 32 29 22 7 342 324 358 359 1 0 351 13 12 12 11 11 4 1 2 1 6 3 2 1 1 344 345 336 336 330 314 321 313 266 278 271 259 268 263 254 253
13 12 11 12 13 11 9 355 342 301 321 353 357 354 340 353 5 6 7 357 -0 360 350 348 1 2 358 357 355 345 338 328 332 322 318 321 307 254 264 264 245 255 252 245 250
3 357 350 352 354 352 349 343 333 304 276 304 336 342 345 317 350 360 358 347 348 350 350 333 341 353 354 353 348 341 333 331 331 324 321 322 316 273 272 246 235 246 245 243 244
357 352 346 342 340 340 339 334 325 318 287 273 288 321 326 330 305 345 344 340 336 333 342 330 330 338 345 347 341 336 333 332 323 325 326 328 326 307 264 249 240 244 245 239 227
356 351 347 344 334 338 336 335 331 328 292 271 266 300 317 324 301 324 334 336 328 329 332 329 325 324 330 337 339 342 337 330 322 322 319 323 291 302 279 260 243 242 243 240 234
355 350 346 344 342 341 337 335 331 325 330 282 264 304 314 313 314 322 329 330 322 320 318 322 313 312 312 329 336 330 335 325 315 309 307 305 282 295 291 278 250 243 246 243 245
351 349 345 342 340 339 335 331 324 306 262 282 303 318 315 305 310 312 321 327 321 310 311 318 302 303 303 322 329 328 338 325 311 310 278 248 266 290 292 299 245 242 246 247 249
342 343 341 340 338 335 334 330 318 238 317 311 319 315 310 301 302 308 310 318 317 314 309 319 301 295 305 315 328 334 342 328 334 338 244 250 273 276 283 280 253 237 244 247 246
332 333 334 334 333 330 328 327 289 299 311 309 315 311 302 303 301 301 310 307 307 294 311 311 309 310 313 316 315 325 345 352 291 292 288 274 236 279 302 291 257 241 246 254 249
318 321 324 324 325 322 321 317 286 302 306 310 309 304 300 298 293 307 312 303 297 295 299 301 283 308 306 302 320 311 304 300 260 270 297 254 262 290 285 282 266 249 259 257 248
306 310 314 315 315 313 309 300 297 299 300 299 296 284 286 295 300 305 306 293 302 294 296 292 299 303 294 303 306 289 287 271 243 299 288 269 274 275 298 296 284 265 268 259 257
295 304 309 310 308 302 303 303 304 302 298 293 288 281 284 291 290 292 280 291 293 290 298 297 293 285 291 305 300 279 266 245 251 236 225 284 283 302 296 299 291 272 259 257 270
291 298 297 299 303 301 298 299 296 293 290 288 285 285 283 283 282 285 282 286 289 291 293 290 281 276 295 293 286 277 267 247 246 254 233 262 273 300 298 306 293 277 270 266 272
291 292 293 294 296 296 291 289 289 289 288 287 285 283 282 281 287 279 283 286 290 291 278 281 271 300 291 281 278 273 280 272 268 260 257 256 269 299 299 299 290 286 281 279 276
292 297 297 296 291 292 301 299 293 291 289 286 280 278 281 286 283 279 282 282 285 285 283 279 269 265 263 283 291 284 287 284 273 258 267 256 280 308 297 293 295 291 283 275 284
290 296 293 286 288 291 296 288 292 295 286 282 280 279 287 284 281 283 283 277 275 277 270 264 272 283 285 291 290 287 291 286 273 281 255 289 287 300 314 299 295 284 287 282 284
291 294 292 288 288 289 288 288 286 288 285 285 281 284 276 273 279 275 278 278 278 278 279 277 269 285 293 298 295 296 293 293 289 281 270 283 287 317 308 303 299 285 276 272 275
282 284 281 285 288 287 286 288 288 282 285 281 281 272 270 279 284 287 289 291 289 289 285 276 274 275 276 287 295 294 299 296 293 292 303 291 306 308 303 301 295 287 273 272 277